Погода в Мескетах

Россия / Чеченская Республика     43°09′34″N   46°21′35″E
темп.,
°C
ветер,
м/с
пор.,
м/с
влажн.,
%
обл.,
%
осадки,
мм/ч
давл.,
гПа
погр.,
м
18 апреля, вс
вс1800:00+12зюз2280100 0.0 102137
03:00+11з1182100 0.0 102124
06:00+11ю0184100 0.0 102042
09:00+15св2362100 0.0 1018660
12:00+19св334637 0.0 10171079
15:00+20всв334764 0.2 10161234
18:00+16в2470100 0.3 1017114
21:00+13юв5973100 0.5 1016227
19 апреля, пн
пн1900:00+12юв237531 0.1 101867
03:00+11ююв0081100 0.1 101710
06:00+12в1279100 0.0 101633
09:00+18всв34575 0.0 1016457
12:00+21св664775 0.0 1015984
15:00+20всв6647100 0.0 1015891
18:00+16в466020 0.0 1014228
21:00+11ююв0170100 0.0 101611
20 апреля, вт
вт2000:00+10вюв1176100 0.0 101516
03:00+11юв1178100 0.0 101312
06:00+12всв1276100 0.0 101152
09:00+20всв34545 0.0 1008398
12:00+28всв663693 0.0 1004757
15:00+26всв6743100 0.0 1003454
18:00+18ссв236998 0.0 100495
21:00+16з31173100 0.1 1008338
21 апреля, ср
ср2100:00+15ссз228294 0.1 100936
03:00+14з51288100 0.1 1013497
06:00+14з6982100 0.0 1016730
09:00+14з688199 0.1 1018751
12:00+15зсз6768100 0.1 10191213
15:00+14з4772100 0.3 1019690
18:00+14з357771 0.2 1020248
21:00+12з258843 0.8 1022166
22 апреля, чт
чт2200:00+11зюз238682 0.1 102185
03:00+11зюз368394 0.1 1021216
06:00+11зюз2580100 0.0 1022257
09:00+12з3573100 0.0 1022539
12:00+13зсз5671100 0.0 1022736
15:00+12з4679100 0.0 1023618
18:00+12з258092 0.0 1024334
21:00+11зюз248398 0.0 1024156